Station BABT2 - 8776604 - Baffin Bay, TX Image indicating link to RSS feed of recent meteorological observations for station BABT2


Conditions at BABT2 as of
(12:18 pm CDT)
1718 GMT on 04/18/2024:
     

Click on the graph icon in the table below to see a time series plot of the last five days of that observation.

5-day plot - Wind Direction Wind Direction (WDIR):ESE ( 110 deg true )
5-day plot - Wind Speed Wind Speed (WSPD): 14.0 kts
5-day plot - Wind Gust Wind Gust (GST): 15.9 kts
5-day plot - Atmospheric Pressure Atmospheric Pressure (PRES):29.91 in
5-day plot - Air Temperature Air Temperature (ATMP): 76.8 °F
5-day plot - Water Temperature Water Temperature (WTMP): 82.4 °F
5-day plot - Wind Speed at 10 Meters Wind Speed at 10 meters (WSPD10M): 13.6 kts
5-day plot - Wind Speed at 20 Meters Wind Speed at 20 meters (WSPD20M): 15.5 kts
5-day plot -  Wind Speed, Wind Gust and Atmospheric Pressure Combined plot of Wind Speed, Gust, and Air Pressure
Previous observations
TIME
(CDT)
5-day plot - Wind Direction
WDIR
 
5-day plot - Wind Speed
WSPD
kts
5-day plot - Wind Gust
GST
kts
5-day plot - Wave Height
WVHT
ft
5-day plot - Dominant Wave Period
DPD
sec
5-day plot - Average Wave Period
APD
sec
5-day plot - Mean Wave Direction
MWD
 
5-day plot - Atmospheric Pressure
PRES
in
5-day plot - Pressure Tendency
PTDY
in
5-day plot - Air Temperature
ATMP
°F
5-day plot - Water Temperature
WTMP
°F
5-day plot - Dew Point
DEWP
°F
5-day plot - Salinity
SAL
psu
5-day plot - Visibility
VIS
nmi
5-day plot - Tide (above MLLW)
TIDE
ft
2024-04-18 12:12 pmESE 13.0 15.9----29.91- 76.6 82.4----
2024-04-18 12:06 pm E 14.0 18.1----29.91- 76.6 82.4----
2024-04-18 12:00 pmESE 13.0 18.1----29.91+0.01 76.6 82.4----
2024-04-18 11:54 amESE 12.0 15.0----29.91- 76.8 82.4----
2024-04-18 11:48 am E 13.0 18.1----29.92- 76.8 82.2----
2024-04-18 11:42 amESE 15.0 19.0----29.92- 76.6 82.0----
2024-04-18 11:36 amESE 15.9 19.0----29.92- 76.6 81.5----
2024-04-18 11:30 amESE 15.9 18.1----29.92- 76.6 81.5----
2024-04-18 11:24 amESE 14.0 17.1----29.92- 76.6 81.3----
2024-04-18 11:18 amESE 14.0 17.1----29.92- 76.8 81.3----
2024-04-18 11:12 amESE 12.0 17.1----29.92- 76.8 81.1----
2024-04-18 11:06 amESE 13.0 17.1----29.93- 76.6 81.0----
2024-04-18 11:00 amESE 15.0 18.1----29.92+0.04 76.8 81.0----
2024-04-18 10:54 amESE 13.0 18.1----29.93- 76.6 80.8----
2024-04-18 10:48 amESE 15.0 18.1----29.91- 76.6 80.8----
2024-04-18 10:42 amESE 14.0 19.0----29.91- 76.6 80.8----
2024-04-18 10:36 amESE 14.0 18.1----29.92- 76.5 80.6----
2024-04-18 10:30 amESE 14.0 19.0----29.91- 76.3 80.4----
2024-04-18 10:24 amESE 14.0 18.1----29.91- 76.1 79.9----
2024-04-18 10:18 amESE 14.0 17.1----29.92- 76.1 79.7----
2024-04-18 10:12 amESE 13.0 15.9----29.91- 76.3 79.7----
2024-04-18 10:06 amESE 12.0 15.0----29.91- 76.3 79.7----
2024-04-18 10:00 amESE 12.0 15.0----29.92+0.06 76.1 79.9----
2024-04-18 09:54 amESE 12.0 15.9----29.91- 76.3 79.9----
2024-04-18 09:48 am E 9.9 14.0------------
2024-04-18 09:42 amESE 11.1 15.9------------
2024-04-18 09:36 amESE 13.0 15.9------------
2024-04-18 09:30 amESE 12.0 15.9----29.90- 76.1 80.4----
2024-04-18 09:24 amESE 12.0 15.0----29.91- 75.9 80.4----
2024-04-18 09:18 amESE 12.0 15.0----29.91- 75.9 80.4----
2024-04-18 09:12 amESE 12.0 15.0----29.91- 75.7 80.4----
2024-04-18 09:06 amESE 13.0 15.9----29.91- 75.9 80.4----
2024-04-18 09:00 amESE 12.0 15.0----29.90+0.03 75.7 80.4----
2024-04-18 08:54 amESE 13.0 15.9----29.90- 75.7 80.2----
2024-04-18 08:48 amESE 13.0 15.0----29.90- 75.6 80.1----
2024-04-18 08:42 amESE 12.0 17.1----29.90- 75.4 80.1----
2024-04-18 08:36 amESE 14.0 15.9----29.89- 75.2 80.1----
2024-04-18 08:30 amESE 11.1 13.0----29.89- 75.0 80.1----
2024-04-18 08:24 amESE 8.9 12.0----29.90- 74.8 80.2----
2024-04-18 08:18 amESE 8.9 12.0----29.90- 74.7 80.2----
2024-04-18 08:12 amESE 8.9 13.0----29.89- 74.5 80.1----
2024-04-18 08:06 amESE 11.1 13.0----29.88- 74.1 80.1----
2024-04-18 08:00 amESE 9.9 13.0----29.88+0.04 74.3 80.1----
2024-04-18 07:54 am E 8.9 12.0----29.88- 74.3 80.1----
2024-04-18 07:48 am E 8.9 12.0----29.88- 74.1 80.1----
2024-04-18 07:42 am E 8.9 13.0----29.88- 74.3 80.1----
2024-04-18 07:36 am E 11.1 14.0----29.87- 74.3 80.1----
2024-04-18 07:30 am E 12.0 14.0----29.87- 74.3 80.1----
2024-04-18 07:24 am E 8.9 12.0----29.87- 74.3 80.1----
2024-04-18 07:18 am E 8.9 11.1----29.86- 74.1 80.1----
2024-04-18 07:12 am E 8.0 9.9----29.87- 74.3 80.1----
2024-04-18 07:06 am E 8.9 11.1----29.86- 74.3 80.1----
2024-04-18 07:00 am E 8.9 9.9----29.86+0.00 74.5 80.1----
2024-04-18 06:54 am E 7.0 9.9----29.86- 74.8 80.1----
2024-04-18 06:48 am E 6.0 8.9----29.86- 74.8 80.2----
2024-04-18 06:42 am E 6.0 8.0----29.86- 74.7 80.2----
2024-04-18 06:36 amENE 8.0 8.9----29.86- 74.5 80.2----
2024-04-18 06:30 am E 8.0 8.9----29.86- 74.5 80.2----
2024-04-18 06:24 am E 7.0 9.9----29.86- 74.7 80.2----
2024-04-18 06:18 am E 8.9 11.1----29.86- 74.7 80.2----
2024-04-18 06:12 am E 7.0 8.9----29.87- 74.7 80.2----
2024-04-18 06:06 amESE 6.0 8.0----29.88- 74.7 80.2----
2024-04-18 06:00 am E 8.0 9.9----29.87+0.04 74.7 80.2----
2024-04-18 05:54 am E 7.0 8.9----29.87- 74.7 80.2----
2024-04-18 05:48 amESE 4.1 5.1----29.88- 74.7 80.2----
2024-04-18 05:42 amESE 4.1 5.1----29.88- 74.5 80.2----
2024-04-18 05:36 am E 5.1 7.0----29.87- 74.5 80.2----
2024-04-18 05:30 amESE 6.0 8.0----29.87- 74.5 80.2----
2024-04-18 05:24 am E 6.0 8.0----29.86- 74.3 80.2----
2024-04-18 05:18 am E 7.0 8.9----29.86- 74.3 80.2----
2024-04-18 05:12 am E 7.0 9.9----29.85- 74.5 80.2----
2024-04-18 05:06 am E 8.9 11.1----29.85- 74.7 80.2----
2024-04-18 05:00 am E 8.9 12.0----29.85-0.03 74.7 80.2----
2024-04-18 04:54 am E 9.9 12.0----29.85- 74.8 80.2----
2024-04-18 04:48 am E 8.0 11.1----29.85- 74.8 80.2----
2024-04-18 04:42 amESE 8.9 11.1----29.85- 75.0 80.2----
2024-04-18 04:36 amESE 9.9 14.0----29.85- 75.2 80.2----
2024-04-18 04:30 amESE 12.0 14.0----29.85- 75.2 80.4----
2024-04-18 04:24 amESE 11.1 14.0----29.85- 75.0 80.4----
2024-04-18 04:18 amESE 11.1 14.0----29.85- 75.2 80.4----
2024-04-18 04:12 am SE 12.0 15.0----29.86- 75.0 80.4----
2024-04-18 04:06 am SE 12.0 14.0----29.86- 75.2 80.4----
2024-04-18 04:00 am SE 12.0 15.0----29.86-0.04 75.0 80.4----
2024-04-18 03:54 am SE 12.0 15.9----29.85- 75.0 80.6----
2024-04-18 03:48 amESE 13.0 15.9----29.84- 74.8 80.6----
2024-04-18 03:42 amESE 9.9 13.0----29.84- 74.8 80.6----
2024-04-18 03:36 am E 9.9 12.0----29.83- 74.8 80.6----
2024-04-18 03:30 amESE 9.9 15.0----29.83- 74.8 80.6----
2024-04-18 03:24 amESE 13.0 15.9----29.83- 74.8 80.6----
2024-04-18 03:18 am E 13.0 15.9----29.83- 74.8 80.8----
2024-04-18 03:12 am E 12.0 15.0----29.83- 74.8 80.8----
2024-04-18 03:06 amESE 12.0 18.1----29.83- 75.0 80.8----
2024-04-18 03:00 amESE 15.0 17.1----29.83-0.07 75.0 81.0----
2024-04-18 02:54 amESE 13.0 17.1----29.84- 75.0 81.0----
2024-04-18 02:48 amESE 13.0 17.1----29.84- 74.8 81.1----
2024-04-18 02:42 amESE 12.0 17.1----29.85- 74.8 81.1----
2024-04-18 02:36 amESE 14.0 18.1----29.84- 75.0 81.1----
2024-04-18 02:30 amESE 13.0 18.1----29.85- 75.2 81.3----
2024-04-18 02:24 amESE 15.0 18.1----29.85- 75.2 81.3----
2024-04-18 02:18 amESE 13.0 15.9----29.86- 75.2 81.3----
2024-04-18 02:12 am E 13.0 17.1----29.86- 75.2 81.3----
2024-04-18 02:06 am E 12.0 15.0----29.87- 75.6 81.3----
2024-04-18 02:00 amESE 9.9 13.0----29.88-0.04 75.7 81.3----
2024-04-18 01:54 amESE 12.0 14.0----29.88- 75.6 81.3----
2024-04-18 01:48 amESE 12.0 14.0----29.89- 75.7 81.3----
2024-04-18 01:42 amESE 9.9 14.0----29.89- 75.6 81.3----
2024-04-18 01:36 amESE 11.1 14.0----29.89- 75.7 81.3----
2024-04-18 01:30 amESE 11.1 14.0----29.89- 75.9 81.5----
2024-04-18 01:24 amESE 12.0 14.0----29.89- 75.9 81.5----
2024-04-18 01:18 amESE 11.1 14.0----29.89- 75.9 81.5----
2024-04-18 01:12 amESE 12.0 14.0----29.89- 76.1 81.5----
2024-04-18 01:06 am SE 12.0 14.0----29.90- 76.3 81.5----
2024-04-18 01:00 am SE 11.1 15.9----29.90+0.02 76.3 81.5----
2024-04-18 12:54 am SE 15.0 18.1----29.89- 76.5 81.5----
2024-04-18 12:48 am SE 9.9 14.0----29.90- 75.6 81.5----
2024-04-18 12:42 amESE 8.9 14.0----29.91- 74.5 81.5----
2024-04-18 12:36 amESE 11.1 13.0----29.90- 74.5 81.5----
2024-04-18 12:30 am E 6.0 11.1----29.90- 74.8 81.7----
2024-04-18 12:24 am E 11.1 15.0----29.90- 74.8 81.7----
2024-04-18 12:18 am E 9.9 13.0----29.89- 74.8 81.7----
2024-04-18 12:12 am E 12.0 15.0----29.89- 74.7 81.7----
2024-04-18 12:06 am E 11.1 14.0----29.90- 74.8 81.7----
2024-04-18 12:00 am E 12.0 14.0----29.90+0.05 74.8 81.7----
2024-04-17 11:54 pm E 12.0 14.0----29.90- 74.8 81.7----
2024-04-17 11:48 pm E 12.0 13.0----29.90- 75.0 81.7----
2024-04-17 11:42 pm E 9.9 12.0----29.91- 75.2 81.7----
2024-04-17 11:36 pm E 11.1 13.0----29.91- 75.2 81.7----
2024-04-17 11:30 pm E 11.1 12.0----29.91- 75.4 81.7----
2024-04-17 11:24 pm E 11.1 12.0----29.91- 75.4 81.7----
2024-04-17 11:18 pm E 8.9 12.0----29.92- 75.4 81.9----
2024-04-17 11:12 pm E 9.9 12.0----29.91- 75.4 81.9----
2024-04-17 11:06 pm E 9.9 11.1----29.91- 75.2 81.9----
2024-04-17 11:00 pm E 8.0 12.0----29.92+0.07 75.2 81.9----
2024-04-17 10:54 pm E 11.1 12.0----29.91- 75.0 81.9----
2024-04-17 10:48 pm E 9.9 12.0----29.91- 75.0 81.9----
2024-04-17 10:42 pm E 8.9 11.1----29.92- 75.0 81.9----
2024-04-17 10:36 pm E 9.9 12.0----29.91- 75.0 81.9----
2024-04-17 10:30 pm E 11.1 13.0----29.91- 75.2 81.9----
2024-04-17 10:24 pm E 12.0 14.0----29.90- 75.2 81.9----
2024-04-17 10:18 pm E 12.0 14.0----29.89- 75.0 81.9----
2024-04-17 10:12 pm E 13.0 17.1----29.88- 75.0 81.9----
2024-04-17 10:06 pm E 15.0 18.1----29.87- 75.0 81.9----
2024-04-17 10:00 pm E 15.0 19.0----29.87+0.04 74.8 81.9----
2024-04-17 09:54 pm E 14.0 15.9----29.88- 75.0 81.9----
2024-04-17 09:48 pm E 12.0 15.9----29.88- 75.0 81.9----
2024-04-17 09:42 pm E 13.0 19.0----29.87- 75.0 82.0----
2024-04-17 09:36 pm E 15.0 18.1----29.86- 75.0 82.0----
2024-04-17 09:30 pm E 15.9 19.0----29.86- 75.0 82.0----
2024-04-17 09:24 pm E 15.9 19.0----29.86- 75.0 82.0----
2024-04-17 09:18 pm E 14.0 17.1----29.86- 74.8 82.0----
2024-04-17 09:12 pm E 15.0 17.1----29.86- 74.5 82.2----
2024-04-17 09:06 pm E 15.0 17.1----29.86- 74.5 82.2----
2024-04-17 09:00 pm E 15.0 19.0----29.85+0.04 74.5 82.2----
2024-04-17 08:54 pm E 15.0 18.1----29.86- 74.5 82.0----
2024-04-17 08:48 pm E 15.9 18.1----29.85- 74.7 82.0----
2024-04-17 08:42 pm E 14.0 17.1----29.85- 74.7 81.9----
2024-04-17 08:36 pm E 14.0 15.0----29.85- 74.3 81.7----
2024-04-17 08:30 pm E 13.0 15.0----29.85- 74.5 82.4----
2024-04-17 08:24 pm E 12.0 15.0----29.85- 74.5 82.4----
2024-04-17 08:18 pmENE 13.0 15.0----29.85- 74.7 82.4----
2024-04-17 08:12 pm E 12.0 15.0----29.85- 74.7 82.4----
2024-04-17 08:06 pm E 11.1 14.0----29.85- 74.8 82.4----
2024-04-17 08:00 pm E 12.0 14.0----29.85+0.02 74.5 82.6----
2024-04-17 07:54 pm E 13.0 15.0----29.84- 74.5 82.6----
2024-04-17 07:48 pm E 12.0 15.0----29.84- 74.5 82.6----
2024-04-17 07:42 pm E 13.0 15.9----29.83- 74.5 82.8----
2024-04-17 07:36 pmENE 13.0 15.9----29.83- 74.5 82.8----
2024-04-17 07:30 pmENE 14.0 15.9----29.83- 74.7 82.8----
2024-04-17 07:24 pmENE 13.0 15.9----29.83- 74.8 82.8----
2024-04-17 07:18 pmENE 14.0 17.1----29.83- 75.0 82.8----
2024-04-17 07:12 pmENE 14.0 17.1----29.83- 75.0 82.9----
2024-04-17 07:06 pm E 14.0 17.1----29.83- 75.2 82.9----
2024-04-17 07:00 pm E 15.0 18.1----29.83-0.01 75.2 83.1----
2024-04-17 06:54 pm E 15.0 19.0----29.83- 75.4 83.1----
2024-04-17 06:48 pm E 14.0 18.1----29.83- 75.2 83.1----
2024-04-17 06:42 pm E 15.0 18.1----29.83- 75.0 83.3----
2024-04-17 06:36 pm E 13.0 17.1----29.83- 75.4 83.3----
2024-04-17 06:30 pm E 13.0 17.1----29.83- 75.4 83.3----
2024-04-17 06:24 pm E 15.0 18.1----29.83- 75.2 83.5----
2024-04-17 06:18 pm E 13.0 17.1----29.83- 75.6 83.5----
2024-04-17 06:00 pm E 14.0 17.1----29.82-0.05 75.6 83.7----
2024-04-17 05:54 pm E 13.0 21.0----29.82- 75.7 83.7----
2024-04-17 05:48 pm E 14.0 18.1----29.82- 75.9 83.7----
2024-04-17 05:42 pm E 13.0 17.1----29.82- 75.9 83.7----
2024-04-17 05:36 pm E 14.0 18.1----29.82- 75.7 83.8----
2024-04-17 05:30 pm E 14.0 19.0----29.82- 75.9 83.8----
2024-04-17 05:24 pm E 14.0 17.1----29.83- 75.7 83.8----
2024-04-17 05:18 pm E 12.0 17.1----29.83- 76.3 83.8----
2024-04-17 05:12 pm E 14.0 17.1----29.83- 76.1 83.8----
2024-04-17 05:06 pm E 14.0 18.1----29.83- 76.1 84.2----
2024-04-17 05:00 pm E 15.0 18.1----29.83-0.05- 84.2----
2024-04-17 04:54 pm E 14.0 17.1----29.83-- 84.2----
2024-04-17 04:48 pm E 13.0 18.1----29.83- 76.3 84.2----
2024-04-17 04:42 pm E 14.0 17.1----29.83- 76.1 84.2----
2024-04-17 04:36 pm E 12.0 17.1----29.83- 76.3 84.2----
2024-04-17 04:30 pm E 13.0 18.1----29.83- 76.5 84.2----
2024-04-17 04:24 pm E 12.0 18.1----29.83- 76.6 84.2----
2024-04-17 04:18 pmESE 13.0 20.0----29.84- 76.1 84.2----
2024-04-17 04:12 pmESE 12.0 19.0----29.84- 76.6 84.2----
2024-04-17 04:06 pmESE 15.0 19.0----29.84- 76.3 84.4----
2024-04-17 04:00 pmESE 15.0 21.0----29.84-0.05 76.5 84.6----
2024-04-17 03:54 pm E 15.9 19.0----29.84- 76.5 84.6----
2024-04-17 03:48 pmESE 15.0 19.0----29.84- 76.5 84.6----
2024-04-17 03:42 pmESE 13.0 17.1----29.85- 76.5 84.6----
2024-04-17 03:36 pmESE 13.0 19.0----29.85- 76.5 84.6----
2024-04-17 03:30 pmESE 15.0 20.0----29.85- 75.9 84.6----
2024-04-17 03:24 pmESE 13.0 19.0----29.85- 76.3 84.6----
2024-04-17 03:18 pmESE 13.0 18.1----29.86- 76.1 84.4----
2024-04-17 03:12 pmESE 15.0 20.0----29.85- 76.1 84.4----
2024-04-17 03:06 pmESE 15.9 21.0----29.86- 76.1 84.4----
2024-04-17 03:00 pmESE 15.0 20.0----29.86-0.03 75.7 84.4----
2024-04-17 02:54 pmESE 15.0 19.0----29.87- 75.7 84.2----
2024-04-17 02:48 pmESE 15.9 22.0----29.87- 75.6 84.2----
2024-04-17 02:42 pmESE 18.1 24.1----29.87- 75.7 84.0----
2024-04-17 02:36 pmESE 19.0 22.9----29.86- 75.7 84.0----
2024-04-17 02:30 pmESE 19.0 22.0----29.86- 75.9 84.0----
2024-04-17 02:24 pmESE 18.1 24.1----29.86- 75.9 84.0----
2024-04-17 02:18 pmESE 20.0 22.9----29.86- 75.9 83.8----
2024-04-17 02:12 pmESE 18.1 24.1----29.87- 76.3 83.7----
2024-04-17 02:06 pmESE 18.1 22.9----29.87- 76.6 83.3----
2024-04-17 02:00 pmESE 18.1 22.0----29.87-0.01 76.8 83.3----
2024-04-17 01:54 pm SE 18.1 22.9----29.88- 77.2 83.3----
2024-04-17 01:48 pm SE 18.1 22.0----29.88- 77.0 82.8----
2024-04-17 01:42 pm SE 15.9 21.0----29.88- 77.0 82.6----
2024-04-17 01:36 pmESE 14.0 18.1----29.89- 76.8 82.8----
2024-04-17 01:30 pmESE 15.0 18.1----29.89- 77.0 82.6----
2024-04-17 01:24 pm SE 15.0 19.0----29.89- 76.6 82.6----
2024-04-17 01:18 pm SE 15.9 19.0----29.89- 76.6 82.2----
2024-04-17 01:12 pmESE 14.0 19.0----29.88- 76.8 82.2----
2024-04-17 01:06 pm SE 13.0 18.1----29.89- 76.8 81.9----
2024-04-17 01:00 pmESE 14.0 17.1----29.89+0.00 77.0 81.7----
2024-04-17 12:54 pm SE 13.0 19.0----29.89- 76.8 81.7----